Wind_Speed
18 19 20 21 23 24 26 27 29 30 34 38 39 39 40 40 41 41 40 40 39 38 36 35 35 34 34 34 33 33 34 34 34 33 32 31 30 30 30 30 30 29 30
17 17 18 19 20 21 24 25 27 29 33 36 37 36 38 39 41 41 39 39 39 37 36 35 35 34 34 33 34 35 35 35 35 35 34 33 32 32 32 32 32 32 32
16 17 17 18 18 18 20 23 25 28 31 35 36 34 37 39 39 40 40 38 39 39 38 37 37 36 35 35 35 35 35 35 36 36 36 35 34 34 34 35 35 35 36
15 16 15 15 16 17 19 21 23 27 30 32 34 35 36 38 38 39 39 39 38 38 38 37 36 36 36 36 35 36 36 35 36 36 36 37 36 36 36 37 37 38 38
14 14 14 14 15 16 18 20 22 25 28 31 32 33 34 35 37 38 38 39 39 38 38 38 38 38 37 37 36 37 36 36 36 37 37 37 38 39 38 38 38 39 39
14 13 13 13 15 16 18 20 21 22 25 28 29 31 33 35 36 36 36 37 37 37 38 39 39 38 37 37 37 38 38 38 38 38 39 39 41 42 42 41 40 40 41
14 13 12 13 15 16 19 20 21 22 24 26 25 28 30 32 34 35 35 36 36 37 37 37 37 37 37 36 37 37 38 39 40 40 40 40 41 42 43 43 42 42 42
13 13 12 13 15 17 18 19 20 22 24 25 23 25 28 31 32 33 35 36 36 37 37 36 37 37 37 38 38 38 39 40 40 41 41 42 42 43 44 44 44 44 44
13 13 13 13 14 15 17 18 19 22 23 24 22 24 25 27 28 30 33 35 35 36 37 38 38 39 38 38 38 38 39 41 42 42 43 44 44 44 44 45 45 45 46
14 13 14 14 14 14 15 17 19 19 21 24 23 23 24 26 27 29 31 34 36 36 36 37 38 38 38 39 39 39 41 42 42 43 44 44 45 45 45 45 46 47 48
15 14 14 14 14 15 16 18 18 19 22 23 24 23 25 27 29 29 31 33 35 35 35 36 37 38 38 38 38 38 39 41 42 43 44 44 45 46 46 47 48 49 50
16 16 15 15 15 15 16 18 19 20 22 23 24 26 26 28 29 30 31 33 34 35 34 35 37 38 37 38 38 39 40 40 42 43 43 44 46 47 48 49 50 51 51
17 17 17 16 16 16 17 18 19 21 23 23 24 26 28 29 30 31 32 33 35 36 36 37 38 39 39 40 40 41 42 42 43 44 45 46 47 47 48 49 50 51 51
18 18 18 19 19 19 19 19 20 22 24 25 25 28 29 30 31 32 34 35 37 38 39 39 40 40 41 42 42 43 43 44 45 46 47 48 49 49 50 50 50 51 52
21 20 20 20 21 21 22 22 22 24 25 26 27 28 29 32 34 35 36 37 38 39 40 40 41 41 42 43 44 44 45 46 47 48 49 50 50 51 52 52 52 53 53
23 22 22 22 23 23 24 24 25 25 27 28 29 30 31 32 34 36 38 38 39 40 41 41 42 42 43 44 45 46 47 48 49 50 51 51 51 52 52 53 53 52 52
25 25 25 25 25 25 26 27 27 28 29 30 31 32 33 33 34 36 37 38 39 40 41 43 44 44 44 45 46 47 49 50 51 51 51 51 52 52 52 53 53 52 53
28 27 28 28 28 28 28 28 29 30 30 32 33 33 34 35 36 37 38 39 41 42 43 44 46 47 47 48 48 49 50 51 51 52 52 52 52 52 52 52 52 52 52
30 30 29 30 30 31 31 31 31 32 32 33 34 35 35 36 38 38 39 40 41 43 44 45 46 47 48 49 50 51 52 52 52 53 53 53 53 53 52 52 52 52 52
32 32 32 32 32 32 33 33 33 33 34 34 34 35 37 38 39 40 41 41 42 43 45 46 47 47 48 49 51 51 51 51 51 52 52 53 53 53 53 54 54 53 53
33 33 33 34 34 34 35 35 35 35 35 35 36 36 37 39 40 41 42 42 42 43 44 46 46 47 48 49 50 51 51 51 51 51 51 52 52 53 53 54 54 54 54
34 34 34 35 35 35 36 36 35 35 36 36 36 37 38 39 40 41 42 43 43 44 44 45 46 46 47 48 49 49 50 50 50 51 51 51 52 52 53 53 54 54 54
36 36 36 36 36 37 37 36 36 37 37 38 38 39 40 40 40 41 41 42 43 43 44 45 45 46 47 47 48 48 48 49 49 49 50 51 51 51 52 53 53 53 53
37 37 37 38 38 38 38 38 38 38 39 39 40 40 40 40 41 41 42 42 43 43 44 45 45 46 47 46 46 46 47 48 48 48 50 50 51 51 51 52 52 53 53
38 38 38 38 38 38 39 39 40 40 40 41 41 41 41 41 42 42 42 43 43 44 44 44 44 45 45 45 45 46 46 47 49 49 50 50 50 51 51 51 51 52 52
39 39 39 38 38 39 39 40 41 41 41 41 41 42 42 43 43 43 43 44 44 44 43 43 44 44 45 45 45 46 47 48 48 49 50 50 51 50 50 50 50 51 51
Wind_Direction
277 269 265 259 253 249 241 236 233 229 226 226 226 226 226 225 224 223 224 226 228 229 228 229 232 233 236 239 242 244 245 247 249 252 256 261 263 264 266 267 270 274 277
278 272 268 262 254 248 241 235 232 228 226 225 224 224 227 226 224 224 225 227 227 229 229 231 233 235 239 243 246 248 249 250 251 254 257 260 263 264 266 269 273 274 276
281 277 272 263 253 247 239 233 233 231 229 228 225 225 226 225 223 224 226 228 228 230 232 234 235 236 241 245 248 250 251 252 254 257 259 261 263 266 268 271 273 274 276
286 281 275 264 254 247 240 234 235 233 231 228 227 226 226 226 224 225 227 229 231 232 233 235 236 238 242 246 249 251 253 254 255 258 262 264 266 269 270 271 273 274 276
295 283 275 263 253 250 244 240 239 236 235 232 231 228 226 225 224 225 227 230 234 233 235 237 239 241 244 246 249 252 255 256 258 260 262 266 269 270 271 272 273 274 276
300 288 275 264 255 251 246 244 242 239 235 231 231 229 226 226 226 226 229 233 235 235 239 240 241 244 246 248 250 253 256 258 261 262 264 267 269 271 272 273 274 274 275
300 291 279 268 256 249 246 247 241 237 233 228 231 229 226 227 228 231 234 236 238 239 241 244 245 245 248 250 251 255 257 259 262 264 266 269 270 271 272 273 273 274 274
298 290 281 268 258 251 248 243 241 238 235 233 233 233 230 232 234 234 234 237 240 241 241 245 247 248 250 252 255 257 259 260 262 264 267 269 271 272 273 273 274 275 276
293 290 282 272 265 260 256 248 246 240 236 236 240 235 232 234 236 237 237 239 241 242 243 247 249 251 253 254 256 258 260 262 265 267 268 270 271 273 274 275 276 276 276
294 291 286 276 272 268 261 256 251 243 241 240 244 241 235 234 238 240 241 243 244 244 247 248 250 252 253 254 256 258 261 263 266 268 269 271 272 273 275 276 276 277 278
296 291 287 281 275 271 266 258 254 251 246 247 248 243 240 238 240 245 247 247 246 246 249 250 251 252 254 256 258 259 261 264 266 267 268 270 272 274 275 276 276 278 279
296 292 288 282 277 273 269 263 260 256 252 252 250 249 248 246 246 250 251 250 251 251 253 255 255 255 256 258 260 262 264 266 268 270 272 273 274 275 277 277 278 279 281
290 289 286 281 278 275 272 267 263 260 258 255 253 253 253 252 251 252 253 253 253 254 256 258 258 259 260 262 264 265 267 268 269 271 272 273 274 275 277 278 279 280 282
286 286 284 279 277 276 273 270 267 265 265 263 258 258 259 258 257 257 257 256 257 257 258 259 261 262 264 265 266 267 269 269 270 271 272 272 273 274 276 278 279 280 282
286 284 283 281 279 276 273 272 272 270 268 267 266 264 264 262 260 260 260 261 261 260 260 261 262 264 265 267 268 269 270 271 271 272 272 272 273 275 276 277 279 280 281
284 284 283 281 278 276 275 274 272 270 268 269 269 268 268 267 265 263 264 265 264 262 261 263 264 265 267 268 268 270 271 272 272 272 273 274 275 277 278 278 280 280 281
281 282 282 281 280 279 277 276 275 273 271 269 268 269 269 269 268 267 267 267 266 264 264 265 265 266 267 268 269 270 271 272 273 274 274 275 275 276 277 279 279 280 281
280 280 281 281 281 280 280 278 277 275 274 271 269 270 270 270 270 269 268 268 268 267 267 267 267 267 267 268 270 271 272 273 275 275 275 275 276 277 279 279 279 280 281
278 279 280 281 281 281 281 280 280 278 277 274 272 271 271 271 271 272 271 270 270 268 267 267 268 268 269 270 272 273 273 274 274 275 276 276 277 278 279 280 280 281 282
277 278 279 279 280 280 280 280 280 279 278 276 275 273 273 272 271 271 271 271 271 270 269 269 270 270 271 272 273 274 275 275 276 276 276 277 277 277 279 280 281 281 282
276 278 278 278 279 279 279 280 280 280 280 278 277 276 275 272 271 271 271 271 271 271 271 271 271 272 272 274 274 275 275 275 276 276 277 278 279 279 280 281 281 282 282
276 277 277 277 278 279 280 279 280 280 280 280 279 276 276 274 273 273 274 273 273 273 273 273 273 274 275 275 276 276 276 276 277 277 277 278 279 279 280 281 282 283 284
274 275 275 275 276 277 278 278 279 279 279 280 279 278 278 277 276 276 277 276 276 276 275 275 275 275 276 277 277 276 276 277 277 278 278 279 279 280 281 282 283 284 284
272 273 273 274 275 275 276 277 277 279 279 280 280 279 279 278 279 279 279 279 279 279 279 278 278 277 277 278 277 277 277 277 278 278 279 279 279 280 281 282 283 284 284
273 273 273 274 274 275 275 276 277 279 280 280 279 279 279 279 279 280 280 280 281 281 281 280 279 279 279 279 279 279 279 279 278 279 279 280 280 281 281 282 283 283 284
274 274 275 275 276 276 277 277 278 279 280 280 280 280 280 280 280 281 281 282 282 281 280 280 280 280 280 280 281 281 281 281 280 280 280 280 281 281 281 282 283 283 284
Height
5677 5677 5677 5678 5678 5680 5682 5685 5689 5693 5698 5703 5708 5713 5719 5725 5731 5736 5741 5747 5753 5757 5762 5766 5770 5773 5777 5780 5783 5785 5787 5789 5791 5793 5794 5795 5795 5796 5796 5796 5796 5796 5796
5673 5673 5672 5672 5673 5675 5676 5679 5683 5687 5692 5697 5701 5707 5713 5719 5725 5730 5735 5741 5746 5751 5755 5759 5763 5767 5770 5773 5776 5778 5781 5782 5784 5786 5787 5788 5789 5789 5789 5789 5789 5789 5789
5670 5669 5668 5668 5669 5670 5672 5675 5678 5682 5686 5690 5695 5700 5706 5711 5718 5724 5729 5734 5739 5744 5748 5752 5756 5760 5763 5766 5769 5771 5773 5775 5777 5778 5780 5781 5781 5782 5782 5782 5781 5781 5781
5667 5665 5665 5665 5665 5667 5668 5671 5674 5677 5680 5685 5690 5695 5701 5706 5712 5718 5723 5728 5733 5737 5742 5746 5749 5753 5756 5759 5761 5763 5766 5768 5769 5771 5772 5773 5774 5774 5774 5774 5773 5773 5772
5664 5663 5662 5662 5662 5663 5665 5667 5670 5673 5676 5679 5684 5689 5695 5701 5706 5712 5717 5722 5726 5731 5735 5739 5742 5745 5748 5751 5753 5755 5758 5760 5761 5762 5763 5764 5764 5764 5765 5765 5764 5764 5763
5662 5660 5659 5659 5660 5661 5662 5664 5666 5669 5672 5675 5680 5684 5690 5696 5701 5706 5710 5715 5719 5723 5727 5731 5735 5737 5740 5742 5744 5747 5749 5751 5752 5753 5754 5755 5755 5755 5755 5755 5755 5754 5754
5659 5658 5657 5657 5657 5658 5659 5660 5662 5665 5668 5672 5676 5680 5685 5690 5695 5700 5704 5708 5712 5716 5720 5724 5727 5729 5732 5734 5736 5738 5740 5741 5743 5743 5744 5744 5744 5744 5744 5744 5744 5744 5743
5657 5656 5655 5655 5655 5656 5657 5658 5660 5661 5665 5669 5672 5676 5680 5685 5689 5693 5697 5702 5705 5709 5713 5715 5718 5721 5723 5725 5727 5729 5730 5731 5733 5733 5734 5734 5734 5734 5733 5733 5733 5733 5733
5655 5654 5653 5653 5653 5653 5654 5655 5657 5659 5661 5664 5668 5671 5675 5679 5683 5687 5690 5694 5698 5701 5704 5707 5709 5712 5714 5716 5718 5719 5721 5722 5723 5723 5723 5723 5723 5723 5722 5722 5721 5721 5721
5653 5652 5651 5651 5650 5651 5651 5652 5653 5655 5657 5660 5664 5667 5670 5673 5677 5680 5684 5687 5691 5694 5696 5698 5701 5703 5705 5707 5708 5709 5710 5711 5712 5712 5712 5712 5712 5712 5711 5710 5709 5708 5708
5651 5650 5649 5648 5648 5648 5648 5649 5650 5651 5654 5656 5659 5662 5664 5667 5670 5673 5676 5680 5683 5686 5688 5690 5692 5693 5695 5697 5698 5699 5700 5700 5701 5701 5701 5701 5700 5700 5699 5698 5697 5695 5694
5648 5647 5646 5645 5645 5645 5645 5646 5646 5647 5649 5652 5655 5657 5658 5660 5663 5666 5669 5672 5674 5677 5679 5681 5683 5684 5686 5687 5688 5689 5689 5689 5690 5690 5689 5689 5688 5687 5686 5685 5684 5682 5680
5645 5644 5643 5643 5642 5642 5642 5642 5643 5644 5645 5647 5649 5650 5652 5654 5656 5658 5661 5663 5665 5667 5669 5671 5673 5674 5676 5676 5677 5677 5677 5678 5678 5677 5677 5676 5675 5674 5673 5672 5670 5668 5667
5642 5641 5640 5639 5639 5638 5638 5638 5638 5639 5639 5641 5642 5644 5645 5646 5648 5650 5652 5653 5655 5657 5659 5661 5662 5663 5664 5665 5665 5665 5666 5665 5665 5664 5664 5663 5662 5660 5659 5658 5656 5655 5653
5637 5637 5636 5635 5634 5634 5634 5634 5634 5634 5633 5634 5635 5636 5637 5638 5639 5640 5642 5643 5645 5646 5648 5649 5650 5651 5652 5652 5653 5653 5653 5653 5652 5651 5650 5649 5647 5646 5645 5644 5642 5640 5639
5632 5631 5630 5629 5628 5628 5628 5627 5627 5627 5627 5627 5627 5627 5628 5629 5630 5630 5631 5632 5634 5635 5636 5637 5638 5639 5639 5640 5640 5640 5640 5639 5638 5637 5636 5635 5633 5632 5631 5630 5628 5626 5624
5625 5625 5624 5623 5622 5621 5621 5620 5620 5619 5619 5618 5618 5618 5618 5619 5619 5620 5621 5621 5622 5623 5624 5624 5625 5626 5626 5626 5626 5626 5626 5625 5624 5623 5622 5621 5619 5618 5617 5615 5613 5611 5609
5618 5617 5616 5615 5614 5613 5613 5612 5611 5610 5610 5609 5609 5608 5608 5608 5608 5609 5609 5610 5610 5611 5611 5612 5612 5612 5613 5612 5612 5612 5611 5611 5610 5608 5607 5606 5605 5604 5602 5601 5599 5597 5595
5609 5609 5608 5607 5606 5605 5604 5603 5602 5601 5600 5600 5599 5598 5598 5598 5597 5597 5597 5597 5598 5598 5599 5599 5599 5599 5599 5598 5598 5597 5597 5596 5595 5594 5593 5592 5590 5589 5587 5586 5584 5583 5580
5600 5599 5598 5598 5597 5596 5594 5593 5592 5591 5590 5589 5589 5588 5587 5587 5586 5586 5586 5585 5585 5585 5585 5586 5585 5585 5585 5584 5583 5582 5581 5581 5580 5579 5578 5577 5575 5573 5572 5571 5569 5567 5565
5591 5590 5589 5588 5587 5586 5584 5583 5582 5581 5580 5579 5578 5577 5576 5576 5575 5575 5574 5573 5573 5572 5572 5572 5571 5571 5570 5569 5568 5567 5566 5566 5565 5564 5563 5562 5560 5559 5557 5555 5554 5552 5550
5580 5579 5579 5578 5577 5575 5574 5573 5572 5571 5569 5568 5567 5566 5565 5564 5563 5563 5562 5561 5560 5559 5558 5558 5557 5556 5555 5554 5553 5552 5551 5550 5550 5549 5548 5547 5545 5544 5542 5540 5539 5536 5534
5569 5569 5568 5567 5566 5564 5563 5562 5561 5560 5559 5558 5556 5555 5554 5552 5551 5550 5549 5548 5547 5546 5545 5544 5543 5542 5541 5539 5538 5537 5536 5535 5535 5534 5533 5532 5531 5529 5527 5526 5523 5521 5519
5558 5557 5557 5556 5555 5553 5552 5551 5550 5549 5548 5547 5545 5543 5542 5541 5539 5538 5536 5535 5534 5532 5531 5530 5529 5528 5526 5525 5523 5522 5521 5521 5520 5519 5518 5517 5516 5514 5512 5511 5508 5506 5503
5547 5546 5545 5544 5543 5542 5541 5540 5538 5537 5536 5534 5533 5531 5530 5528 5527 5525 5524 5522 5521 5519 5517 5516 5515 5514 5513 5511 5510 5509 5508 5507 5506 5505 5504 5503 5501 5499 5497 5495 5493 5490 5488
5535 5534 5533 5532 5531 5530 5529 5528 5526 5525 5523 5522 5520 5519 5517 5516 5514 5513 5511 5509 5507 5506 5504 5502 5501 5500 5499 5498 5496 5495 5494 5492 5491 5490 5489 5488 5486 5484 5482 5480 5477 5475 5472